Weather in Rudnya

Russia / Kaluga Oblast     54°39′30″N   35°52′59″E
temp.,
°C
wind,
m/s
gust,
m/s
humid.,
%
clouds,
%
prec.,
mm/h
press.,
hPa
HPBL,
m
11 april, sun
sun1100:00+3ssw38710 0.0 1026134
03:00+2ssw36770 0.0 1026108
06:00+1ssw22825 0.0 102836
09:00+7ssw34622 0.0 1029274
12:00+12ssw34470 0.0 1029762
15:00+14ssw33420 0.0 10291228
18:00+13sse12520 0.0 103021
21:00+8se22630 0.0 103111
12 april, mon
mon1200:00+7ese22690 0.0 103216
03:00+5e337583 0.0 103329
06:00+4e3679100 0.0 1033102
09:00+9e51260100 0.0 1032544
12:00+12e61043100 0.0 1030842
15:00+10e5972100 0.1 1029692
18:00+11ese4877100 0.0 1027491
21:00+8e3892100 0.0 1027170
13 april, tue
tue1300:00+8e3694100 0.0 1026124
03:00+7ese3491100 0.0 102549
06:00+7se3389100 0.0 102538
09:00+11sse3873100 0.0 1024291
12:00+16sse475795 0.0 1024698
15:00+19s574165 0.0 10231934
18:00+17sse365687 0.0 1022135
21:00+12se3769100 0.0 1023116
14 april, wed
wed1400:00+10se310697 0.0 1022157
03:00+9se387644 0.0 1022122
06:00+8se357991 0.0 102179
09:00+12se3665100 0.0 1021241
12:00+17se4648100 0.0 1019885
15:00+19sse5734100 0.0 10181884
18:00+17se3646100 0.0 1017134
21:00+12ese3560100 0.0 101886
15 april, thu
thu1500:00+11sse2363100 0.0 101738
03:00+10wsw1176100 0.0 101711
06:00+9nne1178100 0.0 101710
09:00+13ene2363100 0.0 1017250
12:00+15ese235093 0.0 1017658
15:00+16ssw2448100 0.0 10161633
18:00+14nne2462100 0.0 1016108
21:00+12nne41170100 0.1 1017303